Showing default

CARTOSAT 2E, 42767

Orbit data source: Space-Track

CARTOSAT 2E, 42767 is a payload satellite owned by ISRO (IN) in SSO that was launched on Fri, 23 Jun 2017 UTC via a PSLV-XL launch vehicle from the Sirharikota (SRI). Payload-class satellites include a variety of spacecraft equipped with specific instruments for various scientific and technological missions. These include communications satellites like Starlink; space stations such as the ISS; scientific satellites like the Hubble; Earth observation satellites from companies like Planet Labs, Umbra, and HawkEye 360; GPS; miniature CubeSats for education and research; and military/defense satellites.

Loading next visibility...
Identifier
42767, 2017-036C
Orbit
SSO
Country
Flag of ININ / IND
Related business
Manufacturer
ISRO
Mission
Operational Defense Imaging
Bus & Motor
IRS-2, AOCS
Mass
712 kg wet, 639 kg dry
Launch date (UTC)
2017-06-23 (8 years ago)
Launch vehicle
PSLV-XL
Launch site
Sirharikota (SRI)
Object type
Payload
Rocket body
Debris
Shape & HBR
Hex Cyl + 2 Pan, 4.0 m
Radar Cross Section
9.780 m², Large (>1 m²)

Expand to show TLE details & history
Last TLE update: 14 hours ago

TLE from 14 hours ago
0 CARTOSAT 2E
1 42767U 17036C   25287.89854733  .00006610  00000-0  31618-3 0  9999
2 42767  97.4641 346.2226 0003810  81.2411 278.9255 15.19311530460909
Epoch: 2025-10-14T21:33Z
TLE epoch observation values (Epoch: 2025-10-14T21:33:54.489Z)
Latitude
-0.00001°
Longitude
-0.9348°
Altitude
510.602 km
Speed
7.609 km/s
True Right ascension
23h 04m 53s
True Declination
0° 00' 00"
Sunlit
Object was in full shadow at epoch
Visualization orbit readout
Latitude
Unknown
Longitude
Unknown
Altitude
Unknown
Speed
Unknown
Apparent Right ascension
Unknown
Apparent Declination
Unknown
Sunlit
N/A
Visualization observer readout
Local Sidereal Time
06:17:53
Azimuth
Unknown
Elevation
Unknown
Doppler factor
Unknown
Orbital elements
Apogee altitude
507.512 km
Perigee altitude
502.267 km
Semi-major axis
6,883.026 km
Eccentricity
0.00038
Inclination
97.4641°
RAAN
346.2226°
Arg. of periapsis
81.2411°
True anomaly
278.88237°
Mean anomaly
278.9255°
Eccentric anomaly
278.90393°
Mean motion
3.80079 °/min
Orbital period
94.72 mins
BSTAR
0.00031618
Loading maneuver chart data...
Computing Atmospheric mass density...

Documentation

Showing up to 5 results
|